Regional Weather Roundup
Issued by NWS

Home | Current Version | Previous Version | Text Only | Print | Product List | Glossary Off
Versions: 1 2 3 4 5 6 7 8 9 10 11 12 13 14 15 16 17 18 19 20 21 22 23 24 25 26 27 28 29 30 31 32 33 34 35 36 37 38 39 40 41 42 43 44 45 46 47 48 49 50

000
ASUS43 KMKX 301921
RWRWI

WISCONSIN REGIONAL WEATHER ROUNDUP
NATIONAL WEATHER SERVICE MILWAUKEE/SULLIVAN WI
200 PM CDT THU MAR 30 2017

NOTE: "FAIR" INDICATES FEW OR NO CLOUDS BELOW 12,000 FEET WITH NO
SIGNIFICANT WEATHER AND/OR OBSTRUCTIONS TO VISIBILITY.

WIZ001-002-006>008-014>016-023>028-302000-
NORTHWEST WISCONSIN

CITY           SKY/WX    TMP DP  RH WIND       PRES   REMARKS
SUPERIOR ARPT  MOSUNNY   38  32  77 E18G25    29.95F WCI  29
ASHLAND        MOSUNNY   45  31  58 NE18      29.93F
HAYWARD        CLOUDY    49  31  49 VRB7      29.87F
SIREN          CLOUDY    49  32  52 E5        29.86F
CUMBERLAND     CLOUDY    46  32  57 E13       29.86R
RICE LAKE      CLOUDY    47  33  58 E13       29.88R
CHETEK         CLOUDY    44  33  65 E9G16     29.87R
LADYSMITH      CLOUDY    46  32  59 E13       29.88S
EAU CLAIRE     CLOUDY    44  35  70 E17G25    29.83F
MENOMONIE      CLOUDY    43  35  73 NE14      29.84F
NEW RICHMOND   CLOUDY    47  33  60 E7G17     29.85R
OSCEOLA        CLOUDY    49  35  58 E13G20    29.88R
$$

WIZ003>005-009-010-017-018-302000-
NORTH CENTRAL WISCONSIN

CITY           SKY/WX    TMP DP  RH WIND       PRES   REMARKS
MANITOWISH WTR CLOUDY    42  26  53 E8        29.90S
ARBOR VITAE    CLOUDY    44  30  58 E9        29.89S
WOODRUFF       CLOUDY    44  30  58 E9        29.89S
RHINELANDER    CLOUDY    42  31  64 E15       29.90F
EAGLE RIVER    CLOUDY    42  29  59 E14       29.91S
LAND O LAKES   CLOUDY    42  29  60 E6        29.93S
PHILLIPS       CLOUDY    44  31  61 E13G18    29.87F
TOMAHAWK       CLOUDY    41  31  67 E9        29.89F
MEDFORD        CLOUDY    39  32  77 E16       29.86S WCI  30
MERRILL        CLOUDY    39  33  79 E12       29.89S WCI  32
$$

WIZ029-030-035-036-043>047-302000-
CENTRAL WISCONSIN

CITY           SKY/WX    TMP DP  RH WIND       PRES   REMARKS
WAUSAU         CLOUDY    38  33  82 E12G17    29.87R WCI  30
MOSINEE        CLOUDY    37  36  93 E16G23    29.87S WCI  28
MARSHFIELD     LGT RAIN  38  34  85 E15       29.83S WCI  29
STEVENS POINT  CLOUDY    34  33  97 NE15      29.86S WCI  24
WAUPACA        LGT RAIN  36  34  92 NE13G20   29.86F WCI  28
WAUTOMA        LGT RAIN  35  34  96 NE15G21   29.84S WCI  25
WISC RAPIDS    CLOUDY    38  35  89 E15G22    29.84F WCI  29
CAMP DOUGLAS   LGT RAIN  37  36  93 E17G23    29.80F WCI  28
$$

WIZ011>013-019>022-031-037>040-048>050-302000-
NORTHEAST WISCONSIN

CITY           SKY/WX    TMP DP  RH WIND       PRES   REMARKS
ANTIGO         CLOUDY    35  33  91 NE17      29.90S WCI  25
SHAWANO        CLOUDY    37  35  90 NE14      29.91S WCI  29
OCONTO         CLOUDY    34  32  94 NE13      29.92F WCI  25
STURGEON BAY   LGT SNOW  34  33  96 NE10      29.92F FOG     WCI  26
GREEN BAY      LGT SNOW  34  34 100 NE18      29.89F FOG     WCI  23
MANITOWOC      LGT RAIN  37  35  92 NE13G22   29.86F FOG     WCI  29
APPLETON       LGT RAIN  34  34 100 NE15G23   29.84F WCI  24
CLINTONVILLE   DRIZZLE   36  34  93 NE14      29.88F WCI  27
OSHKOSH        CLOUDY    37  35  92 NE13      29.82F FOG     WCI  29
$$

WIZ032>034-041-042-053>061-302000-
SOUTHWEST WISCONSIN

CITY           SKY/WX    TMP DP  RH WIND       PRES   REMARKS
LA CROSSE      CLOUDY    41  36  82 NE9G21    29.79S
SPARTA         CLOUDY    38  36  94 E16G30    29.79F WCI  29
VIROQUA        CLOUDY    38  37  96 E15       29.75S WCI  29
BOSCOBEL       LGT RAIN  41  37  86 NE9G18    29.73F
PRAIRIE DU CHI DRIZZLE   38  37  97 N7        29.74F WCI  33
PLATTEVILLE    CLOUDY    40  39  99 NE18G24   29.67F WCI  31
$$

WIZ056-057-062-063-064-067-068-302000-
SOUTH CENTRAL WISCONSIN

CITY           SKY/WX    TMP DP  RH WIND       PRES   REMARKS
REEDSBURG      LGT RAIN  37  37 100 NE13G22   29.76F WCI  28
BARABOO/DELLS  LGT RAIN  37  36  93 NE14      29.77S WCI  29
LONE ROCK      LGT RAIN  40  36  86 NE17G24   29.72F FOG     WCI  31
MINERAL POINT  CLOUDY    39  39 100 NE18      29.68F WCI  30
MADISON        RAIN      39  36  89 NE17      29.74F FOG     WCI  30
MIDDLETON      CLOUDY    39  39 100 E21G26    29.72F WCI  29
WATERTOWN      LGT RAIN  38  38 100 NE16G25   29.71F WCI  29
MONROE         DRIZZLE   37  37 100 NE20G25   29.66F WCI  27
JANESVILLE     RAIN      39  39 100 NE12      29.70S WCI  32
$$

WIZ051-052-058>065-066-070>072-302000-
SOUTHEAST WISCONSIN

CITY           SKY/WX    TMP DP  RH WIND       PRES   REMARKS
MILWAUKEE      LGT RAIN  39  36  89 N15G25    29.70F FOG     WCI  31
WAUKESHA       LGT RAIN  36  36 100 E17G29    29.73F FOG     WCI  25
MILWAUKEE/TIMM RAIN      37  36  93 NE12G21   29.76F WCI  30
RACINE         HVY RAIN  39  37  92 NE10      29.74R FOG     WCI  32
KENOSHA        HVY RAIN  40  38  93 E12       29.73R FOG     WCI  33
FOND DU LAC    CLOUDY    39  35  86 E14G24    29.81F WCI  31
SHEBOYGAN      LGT RAIN  37  35  92 NE17      29.82F FOG     WCI  27
WEST BEND      LGT RAIN  36  36 100 E15G24    29.78F WCI  26
JUNEAU         LGT RAIN  37  36  95 NE16G23   29.77F WCI  28
$$

LSZ147-162-302000-
LAKE SUPERIOR

STATION/POSITION TIME  TEMP    WIND        PRES    WAVE
                       AIR SEA DIR/SP/G            HT/PER
                 (UTC) (F)     (DEG/KT/KT) (MB)    (FT/S)
DEVILS ISLAND    1900   35      50/ 15/ 17 1015.8F
PORT WING        1843   36      30/ 22/ 25 1014.2F
SAXON HARBOR     1840   35      30/  8/ 11 1013.9F
$$

LMZ867-665-643>646-302000-
LAKE MICHIGAN

STATION/POSITION TIME  TEMP    WIND        PRES    WAVE
                       AIR SEA DIR/SP/G            HT/PER
                 (UTC) (F)     (DEG/KT/KT) (MB)    (FT/S)
CHAMBERS ISLAND  1840   34      40/ 12/ 16 1014.2F
NORTHPORT PIER   1900   34      60/ 17/ 22 1014.6
SISTER BAY       1836   35      30/ 11/ 18   N/A
KEWAUNEE LAKESHO 1854   35      40/ 16/ 21 1012.0F
SHEBOYGAN LAKESH 1900   37      30/ 20/ 22 1009.8F
PORT WASHINGTON  1900   38      40/ 15/ 23 1009.1
MILWAUKEE LAKESH 1900   37      20/ 19/ 21   N/A
KENOSHA   LAKESH 1900   39      60/  3/  6 1006.8
$$

TC  - TEMPERATURE IN CELSIUS
VSB - VISIBILITY IN STATUTE MILES
WCI - WIND CHILL INDEX
HX  - HEAT INDEX





USA.gov is the U.S. government's official web portal to all federal, state and local government web resources and services.